Location: Unspecified
(0.0000°N, 0.0000°E)
Time: 15:57:28
(UTC+00:00)

Courier 1B - All Passes

Search period start: 20 January 2017 00:00
Search period end: 30 January 2017 00:00
Orbit: 962 x 1209 km, 28.3° (Epoch: 20 January)

Date Brightness Start Highest point End Pass type
(mag) Time Alt. Az. Time Alt. Az. Time Alt. Az.
20 Jan - 01:54:58 10° SW 01:58:19 14° SSW 02:01:40 10° S visible
20 Jan - 07:44:10 10° S 07:47:09 13° SSE 07:50:11 10° SE daylight
20 Jan - 09:35:12 10° SW 09:42:07 40° SSE 09:49:18 10° E daylight
20 Jan - 11:28:57 10° WSW 11:36:33 65° NNW 11:44:21 10° NE daylight
20 Jan - 13:25:39 10° WNW 13:31:22 22° NNW 13:37:05 10° NNE daylight
20 Jan - 19:20:14 10° NNE 19:20:48 10° NNE 19:21:22 10° NNE visible
20 Jan - 21:09:55 10° NNW 21:15:57 31° NNE 21:21:43 10° E visible
20 Jan - 23:03:26 10° WNW 23:10:07 73° SSW 23:16:36 10° SE night (unlit)
21 Jan - 00:59:47 10° WSW 01:04:21 20° SSW 01:08:54 10° SSE night (unlit)
21 Jan - 08:41:55 10° SSW 08:48:07 29° SSE 08:54:34 10° E daylight
21 Jan - 10:34:59 10° WSW 10:42:33 87° NNW 10:50:27 10° ENE daylight
21 Jan - 12:30:43 10° W 12:37:12 29° NNW 12:43:46 10° NNE daylight
21 Jan - 20:16:33 10° NNW 20:22:01 23° NNE 20:27:15 10° ENE visible
21 Jan - 22:09:31 10° WNW 22:16:23 81° NNE 22:22:56 10° ESE night (unlit)
22 Jan - 00:05:00 10° W 00:10:29 27° SSW 00:15:54 10° SSE night (unlit)
22 Jan - 07:48:50 10° SSW 07:54:05 21° SSE 07:59:32 10° ESE daylight
22 Jan - 09:41:15 10° SW 09:48:36 70° SSE 09:56:20 10° ENE daylight
22 Jan - 11:36:08 10° W 11:43:06 38° NNW 11:50:16 10° NE daylight
22 Jan - 13:34:59 10° NW 13:38:24 13° NNW 13:41:48 10° N daylight
22 Jan - 19:23:17 10° NNW 19:27:57 18° NNE 19:32:26 10° ENE visible
22 Jan - 21:15:44 10° NW 21:22:37 58° NNE 21:29:06 10° ESE visible
22 Jan - 23:10:29 10° W 23:16:41 39° SSW 23:22:41 10° SE night (unlit)
23 Jan - 01:09:46 10° SW 01:11:20 11° SSW 01:12:55 10° S night (unlit)
23 Jan - 06:56:07 10° S 07:00:01 15° SSE 07:04:02 10° ESE daylight
23 Jan - 08:47:42 10° SW 08:54:40 51° SSE 09:02:02 10° ENE daylight
23 Jan - 10:41:50 10° WSW 10:49:03 51° NNW 10:56:35 10° NE daylight
23 Jan - 12:39:16 10° WNW 12:44:05 17° NNW 12:48:56 10° NNE daylight
23 Jan - 18:30:16 10° N 18:33:47 14° NNE 18:37:12 10° NE visible
23 Jan - 20:22:03 10° NW 20:28:46 42° NNE 20:35:06 10° E visible
23 Jan - 22:16:12 10° WNW 22:22:55 55° SSW 22:29:20 10° SE night (unlit)
24 Jan - 00:13:36 10° WSW 00:17:18 15° SSW 00:20:58 10° S night (unlit)
24 Jan - 06:04:22 10° S 06:05:53 11° SSE 06:07:25 10° SE daylight
24 Jan - 07:54:21 10° SW 08:00:46 36° SSE 08:07:31 10° E daylight
24 Jan - 09:47:48 10° WSW 09:55:04 69° NNW 10:02:46 10° NE daylight
24 Jan - 11:44:07 10° WNW 11:49:51 23° NNW 11:55:42 10° NNE daylight
24 Jan - 17:37:57 10° N 17:39:29 11° NNE 17:41:00 10° NNE daylight
24 Jan - 19:28:29 10° NNW 19:34:50 31° NNE 19:40:50 10° E visible
24 Jan - 21:22:04 10° WNW 21:29:09 78° SSW 21:35:50 10° SE visible
24 Jan - 23:18:23 10° WSW 23:23:22 22° SSW 23:28:14 10° SSE night (unlit)
25 Jan - 07:01:12 10° SSW 07:06:50 26° SSE 07:12:43 10° E daylight
25 Jan - 08:53:58 10° WSW 09:01:09 88° SSE 09:08:47 10° ENE daylight
25 Jan - 10:49:22 10° W 10:55:42 30° NNW 11:02:16 10° NNE daylight
25 Jan - 12:49:59 10° NNW 12:51:16 10° NNW 12:52:33 10° N daylight
25 Jan - 18:35:02 10° NNW 18:40:47 24° NNE 18:46:18 10° ENE visible
25 Jan - 20:28:05 10° NW 20:35:21 76° NNE 20:42:09 10° ESE visible
25 Jan - 22:23:34 10° W 22:29:30 30° SSW 22:35:13 10° SSE visible
26 Jan - 06:08:18 10° SSW 06:12:52 19° SSE 06:17:36 10° ESE daylight
26 Jan - 08:00:21 10° SW 08:07:16 65° SSE 08:14:38 10° ENE daylight
26 Jan - 09:54:56 10° W 10:01:39 39° NNW 10:08:42 10° NE daylight
26 Jan - 11:53:21 10° NW 11:56:52 14° NNW 12:00:27 10° N daylight
26 Jan - 17:41:43 10° NNW 17:46:39 18° NNE 17:51:26 10° ENE daylight
26 Jan - 19:34:14 10° NW 19:41:29 56° NNE 19:48:17 10° ESE visible
26 Jan - 21:29:00 10° W 21:35:40 43° SSW 21:41:59 10° SE visible
26 Jan - 23:27:46 10° SW 23:30:17 12° SSW 23:32:46 10° S night (unlit)
27 Jan - 05:15:49 10° S 05:18:50 13° SSE 05:21:55 10° SE visible
27 Jan - 07:06:56 10° SW 07:13:26 46° SSE 07:20:19 10° ENE daylight
27 Jan - 09:00:47 10° WSW 09:07:40 53° NNW 09:14:59 10° NE daylight
27 Jan - 10:57:52 10° WNW 11:02:35 18° NNW 11:07:26 10° NNE daylight
27 Jan - 16:48:37 10° N 16:52:23 14° NNE 16:56:05 10° NE daylight
27 Jan - 18:40:30 10° NW 18:47:32 41° NNE 18:54:11 10° E visible
27 Jan - 20:34:39 10° WNW 20:41:51 60° SSW 20:48:36 10° SE visible
27 Jan - 22:31:54 10° WSW 22:36:15 17° SSW 22:40:29 10° SSE visible
28 Jan - 06:13:40 10° SSW 06:19:35 33° SSE 06:25:47 10° E daylight
28 Jan - 08:06:52 10° WSW 08:13:46 72° NNW 08:21:09 10° NE daylight
28 Jan - 10:02:53 10° WNW 10:08:24 23° NNW 10:14:08 10° NNE daylight
28 Jan - 15:56:12 10° N 15:58:01 11° NNE 15:59:49 10° NNE daylight
28 Jan - 17:46:54 10° NNW 17:53:31 31° NNE 17:59:50 10° E daylight
28 Jan - 19:40:29 10° WNW 19:48:00 84° SSW 19:55:03 10° ESE visible
28 Jan - 21:36:42 10° W 21:42:18 24° SSW 21:47:39 10° SSE visible
29 Jan - 05:20:36 10° SSW 05:25:43 23° SSE 05:31:00 10° ESE visible
29 Jan - 07:13:09 10° WSW 07:19:56 83° SSE 07:27:10 10° ENE daylight
29 Jan - 09:08:17 10° W 09:14:19 30° NNW 09:20:41 10° NNE daylight
29 Jan - 11:08:36 10° NNW 11:09:47 10° NNW 11:10:57 10° N daylight
29 Jan - 16:53:26 10° NNW 16:59:24 24° NNE 17:05:10 10° ENE daylight
29 Jan - 18:46:29 10° NW 18:54:06 73° NNE 19:01:17 10° ESE visible
29 Jan - 20:41:53 10° W 20:48:23 34° SSW 20:54:34 10° SSE visible
